DateTimeUTC,F1_A11,F1_S11,BsB_S11,BsG_S11,BsR_S11,BbsB_S11,BbsG_S11,BbsR_S11,BaB_A11,BaG_A11,BaR_A11,Tu_S11,T_S11,Uu_S11,U_S11,P_S11,T1_A11
2021-03-31T13:00:00Z,00000200,20000000,,,,,,,-000.11,-000.32,-000.17,16.7,23.8,01.8,01.2,0647.9,30.9
2021-03-31T13:01:00Z,00000200,20000000,,,,,,,0000.39,0000.68,0000.05,16.7,23.8,01.7,01.1,0648.0,30.9
2021-03-31T13:02:00Z,00000200,20000000,,,,,,,-000.23,-000.08,-000.07,16.7,23.8,01.7,01.1,0648.0,30.9
2021-03-31T13:03:00Z,00000200,60000000,,,,,,,0000.16,0000.18,0000.29,16.7,23.8,01.7,01.1,0648.1,30.9
2021-03-31T13:04:00Z,00000200,41000000,-000.42,0000.19,0000.22,-000.09,-000.00,0000.27,-000.49,-000.56,-000.14,16.8,23.7,01.8,01.2,0649.2,30.9
2021-03-31T13:05:00Z,00000200,01000000,0000.07,0000.11,-000.04,0000.23,0000.04,0000.38,0000.63,0000.54,0000.04,16.9,23.6,01.8,01.2,0649.5,30.9
2021-03-31T13:06:00Z,00000200,01000000,0000.30,0000.23,0000.41,0000.38,-000.03,0000.35,-000.85,-000.36,0000.05,16.9,23.6,01.8,01.2,0649.5,30.9
2021-03-31T13:07:00Z,00000200,01000000,0000.19,-000.09,0000.36,0000.20,-000.01,0000.07,-000.17,-000.31,-000.18,16.9,23.6,01.6,01.1,0649.5,30.9
2021-03-31T13:08:00Z,00000200,01000000,0000.65,0000.18,0000.15,-000.29,-000.05,-000.18,0000.33,-000.10,-000.03,16.8,23.6,01.6,01.1,0649.5,30.9
2021-03-31T13:09:00Z,00000200,01000000,0000.51,0000.12,0000.11,0000.02,0000.01,0000.17,0000.11,0000.54,0000.62,16.9,23.6,01.6,01.1,0649.5,30.9
2021-03-31T13:10:00Z,00000200,01000000,0000.18,0000.18,0000.13,-000.05,0000.08,0000.24,0000.49,0000.40,0000.01,16.9,23.6,01.7,01.1,0649.6,30.9
2021-03-31T13:11:00Z,00000200,01000000,0000.33,0000.18,0000.13,0000.33,0000.14,0000.23,0000.07,0000.16,0000.01,16.9,23.5,01.7,01.1,0649.7,30.9
2021-03-31T13:12:00Z,00000200,01000000,0000.37,0000.40,0000.43,0000.32,0000.31,0000.23,0000.83,0000.84,0000.56,17.0,23.6,01.8,01.2,0649.6,31.0
2021-03-31T13:13:00Z,00000200,01000000,0000.77,0000.55,0000.35,0000.36,0000.14,0000.45,-000.20,-000.28,0000.41,17.1,23.6,01.9,01.3,0649.3,31.0
2021-03-31T13:14:00Z,00000200,01000000,0000.27,0000.23,0000.36,0000.03,0000.18,0000.24,-000.34,-000.13,-000.21,17.1,23.6,01.8,01.2,0649.3,30.9
2021-03-31T13:15:00Z,00000200,01000000,0000.48,0000.16,0000.37,-000.03,0000.00,0000.37,-000.36,-000.61,-000.60,17.2,23.7,01.7,01.1,0649.3,31.0
2021-03-31T13:16:00Z,00000200,01000000,0000.40,0000.26,0000.14,0000.18,0000.11,0000.09,0000.00,0000.20,0000.04,17.2,23.7,01.5,01.0,0649.6,31.0
2021-03-31T13:17:00Z,00000200,01000000,0000.38,0000.31,0000.27,0000.58,0000.06,0000.09,0000.20,-000.12,-000.12,17.2,23.7,01.5,01.0,0649.6,31.0
2021-03-31T13:18:00Z,00000200,01000000,0000.58,0000.29,0000.16,0000.32,0000.02,0000.25,-000.34,0000.01,-000.18,17.2,23.7,01.4,00.9,0649.5,30.9
2021-03-31T13:19:00Z,00000200,01000000,0000.23,0000.24,0000.05,0000.20,-000.10,0000.07,0000.44,0000.10,0000.56,17.2,23.7,01.4,00.9,0649.7,30.9
2021-03-31T13:20:00Z,00000200,01000000,0000.28,0000.69,0000.44,0000.28,-000.18,0000.32,-000.51,0000.06,-000.26,17.2,23.7,01.4,00.9,0649.6,30.9
2021-03-31T13:21:00Z,00000200,01000000,0000.35,0000.22,0000.50,0000.07,0000.22,0000.36,-000.03,-000.29,-000.31,17.2,23.7,01.3,00.8,0649.6,30.9
2021-03-31T13:22:00Z,00000200,01000000,0000.56,0000.14,0000.27,0000.42,-000.00,0000.08,0000.12,0000.20,0000.30,17.2,23.7,01.3,00.9,0649.6,30.9
2021-03-31T13:23:00Z,00000200,01000000,0000.23,0000.22,0000.21,-000.02,0000.12,0000.30,-000.02,-000.02,-000.13,17.2,23.7,01.2,00.8,0649.6,30.9
2021-03-31T13:24:00Z,00000200,01000000,0000.58,0000.28,0000.49,-000.06,0000.14,0000.44,-000.28,0000.11,0000.04,17.2,23.7,01.1,00.8,0649.7,30.9
2021-03-31T13:25:00Z,00000200,01000000,0000.65,0000.49,0000.28,-000.13,0000.05,0000.20,0000.37,0000.15,0000.21,17.2,23.7,01.1,00.7,0649.8,30.9
2021-03-31T13:26:00Z,00000200,01000000,0000.27,0000.43,0000.19,0000.31,0000.02,0000.26,0000.53,0000.45,0000.41,17.1,23.7,01.1,00.7,0649.8,30.9
2021-03-31T13:27:00Z,00000200,01000000,0000.75,0000.63,0000.30,0000.24,0000.05,0000.30,0000.31,-000.31,0000.26,17.1,23.7,01.2,00.8,0649.7,30.9
2021-03-31T13:28:00Z,00000200,01000000,0000.47,0000.70,0000.44,0000.46,-000.02,-000.02,0000.66,0001.03,0000.04,17.1,23.7,01.2,00.8,0649.9,30.9
2021-03-31T13:29:00Z,00000200,01000000,0001.27,0000.56,0000.39,0000.41,-000.09,0000.13,-000.05,-000.29,0000.16,17.1,23.7,01.3,00.9,0649.9,30.9
2021-03-31T13:30:00Z,00000200,01000000,0000.95,0000.46,0000.43,0000.24,-000.01,0000.19,0000.57,0000.60,0000.34,17.1,23.7,01.3,00.9,0650.0,30.9
2021-03-31T13:31:00Z,00000200,01000000,0000.65,0000.52,0000.42,0000.42,0000.24,0000.24,-000.19,-000.18,0000.05,17.1,23.7,01.2,00.8,0649.9,30.9
2021-03-31T13:32:00Z,00000200,01000000,0000.45,0000.49,0000.33,0000.32,0000.17,0000.29,0000.17,0000.24,0000.12,17.1,23.7,01.2,00.8,0649.8,30.9
2021-03-31T13:33:00Z,00000200,01000000,0000.76,0000.84,0000.68,0000.47,0000.10,0000.51,-000.29,0000.16,-000.05,17.1,23.7,01.1,00.7,0649.7,30.9
2021-03-31T13:34:00Z,00000200,01000000,0000.78,0000.58,0000.27,0000.15,0000.05,0000.27,0000.58,0000.16,0000.23,17.1,23.7,01.0,00.7,0649.9,30.9
2021-03-31T13:35:00Z,00000200,01000000,0001.18,0000.69,0000.73,0000.57,0000.22,0000.45,0000.43,0000.49,0000.53,17.1,23.7,01.2,00.8,0649.8,30.9
2021-03-31T13:36:00Z,00000200,01000000,0001.24,0000.77,0000.63,-000.02,0000.36,0000.46,0000.42,0000.34,-000.41,17.1,23.6,01.2,00.8,0649.9,30.9
2021-03-31T13:37:00Z,00000200,01000000,0001.72,0000.46,0000.30,-000.09,0000.21,0000.20,-000.04,-000.09,0000.37,17.1,23.7,01.1,00.8,0650.1,30.9
2021-03-31T13:38:00Z,00000200,01000000,0000.76,0000.66,0000.48,0000.19,0000.25,0000.07,0000.47,0000.27,0000.53,17.1,23.6,01.0,00.7,0650.1,30.9
2021-03-31T13:39:00Z,00000200,01000000,0000.59,0000.65,0000.37,0000.35,0000.15,0000.22,0000.23,0000.65,0000.24,17.1,23.7,01.2,00.8,0650.2,30.9
2021-03-31T13:40:00Z,00000200,01000000,0001.57,0000.99,0000.59,0000.30,0000.03,0000.02,0000.30,0000.13,-000.03,17.1,23.6,01.1,00.8,0650.1,30.9
2021-03-31T13:41:00Z,00000200,01000000,0001.06,0000.27,0000.56,0000.08,0000.02,0000.21,0000.09,-000.18,0000.26,17.0,23.6,01.0,00.6,0650.2,30.9
2021-03-31T13:42:00Z,00000200,01000000,0000.84,0000.29,0000.58,0000.41,-000.07,-000.02,0000.10,0000.51,-000.07,17.0,23.6,01.0,00.7,0650.2,30.9
2021-03-31T13:43:00Z,00000200,01000000,0001.70,0000.92,0000.24,0000.38,0000.06,0000.04,0000.75,0000.24,0000.37,17.0,23.6,00.9,00.6,0650.1,30.9
2021-03-31T13:44:00Z,00000200,01000000,0001.70,0000.90,0000.46,0000.14,-000.03,0000.25,0000.61,0000.84,0001.01,17.0,23.6,01.0,00.7,0650.1,30.9
2021-03-31T13:45:00Z,00000200,01000000,0000.46,0000.59,0000.72,0000.42,0000.09,0000.48,-000.05,-000.04,-000.43,17.0,23.6,01.1,00.7,0650.1,30.9
2021-03-31T13:46:00Z,00000200,01000000,0000.98,0000.73,0000.28,0000.20,0000.13,0000.11,0000.56,-000.08,0000.38,17.0,23.6,01.1,00.7,0650.1,30.9
2021-03-31T13:47:00Z,00000200,01000000,0000.87,0000.85,0000.71,0000.30,0000.02,0000.19,0000.30,0000.45,0000.33,17.0,23.6,01.1,00.7,0650.1,30.9
2021-03-31T13:48:00Z,00000200,01000000,0000.05,0000.61,0000.17,0000.70,0000.09,0000.32,-000.12,-000.08,0000.02,17.0,23.6,01.0,00.6,0650.2,30.9
2021-03-31T13:49:00Z,00000200,01000000,0000.97,0000.65,0000.58,0000.20,0000.10,0000.31,0000.23,0000.27,0000.06,17.0,23.6,00.9,00.6,0650.1,30.9
2021-03-31T13:50:00Z,00000200,01000000,0001.16,0000.73,0000.62,-000.06,0000.18,0000.12,0000.76,0000.52,0000.29,17.0,23.6,01.0,00.7,0650.2,30.9
2021-03-31T13:51:00Z,00000200,01000000,0000.95,0000.75,0000.43,0000.53,0000.11,0000.33,0000.12,0000.52,0000.33,17.0,23.6,00.9,00.6,0650.3,30.9
2021-03-31T13:52:00Z,00000200,01000000,0000.65,0000.40,0000.43,0000.12,0000.15,0000.14,0000.12,0000.30,0000.04,17.0,23.6,00.9,00.6,0650.3,30.9
2021-03-31T13:53:00Z,00000200,01000000,0000.44,0001.07,0000.31,0000.36,0000.34,0000.24,0000.63,0000.10,0000.73,16.9,23.6,01.0,00.7,0650.4,30.9
2021-03-31T13:54:00Z,00000200,01000000,0000.66,0000.63,0000.26,0000.59,0000.07,0000.39,0000.11,0000.19,-000.13,16.9,23.5,01.0,00.7,0650.5,30.9
2021-03-31T13:55:00Z,00000200,01000000,0000.55,0001.00,0000.30,0000.33,0000.18,0000.40,0000.41,0000.26,0000.23,16.9,23.5,00.9,00.6,0650.5,30.9
2021-03-31T13:56:00Z,00000200,01000000,0001.22,0000.51,0000.49,0000.91,0000.19,0000.35,0000.20,0000.57,0000.32,17.0,23.6,00.8,00.6,0650.5,30.9
2021-03-31T13:57:00Z,00000200,41000000,,,,,,,0001.16,0001.12,0000.77,17.0,23.6,00.6,00.4,0650.7,30.9
2021-03-31T13:58:00Z,00000200,61000000,,,,,,,-000.23,-000.47,-000.14,16.9,23.7,01.0,00.6,0649.6,30.9
2021-03-31T13:59:00Z,00000200,21000000,,,,,,,-000.66,-000.17,-000.32,16.9,23.8,00.9,00.6,0649.5,31.0
